Regional Weather Roundup
Issued by NWS

Home | Current Version | Previous Version | Text Only | Print | Product List | Glossary Off
Versions: 1 2 3 4 5 6 7 8 9 10 11 12 13 14 15 16 17 18 19 20 21 22 23 24 25 26 27 28 29 30 31 32 33 34 35 36 37 38 39 40 41 42 43 44 45 46 47 48 49 50

000
ASUS43 KDTX 220510
RWRMI
MICHIGAN HOURLY REGIONAL WEATHER ROUNDUP
NATIONAL WEATHER SERVICE DETROIT/PONTIAC MI
1200 AM EST MON DEC 22 2014

NOTE: "FAIR" INDICATES FEW OR NO CLOUDS BELOW 12,000 FEET WITH NO
SIGNIFICANT WEATHER AND/OR OBSTRUCTION TO VISIBILITY.

MIZ047>049-052>055-059>063-066>070-074>076-081>083-220600-
SOUTHEAST LOWER MICHIGAN

CITY           SKY/WX    TMP DP  RH WIND       PRES   REMARKS
ADRIAN         CLEAR     27  24  89 SE6       30.17F FOG
ALMA           CLOUDY    28  26  94 SE3       30.14F FOG
ANN ARBOR      CLEAR     27  24  89 E6        30.17F
BAD AXE        CLOUDY    31  26  81 S10       30.19F
DETROIT CITY   PTCLDY    29  22  75 SE3       30.20F HAZE
DETROIT        PTCLDY    28  24  85 E5        30.19F FOG
FLINT          CLOUDY    32  24  72 SE10      30.17F
GROSSE ILE     CLEAR     30  25  80 E6        30.18F
HILLSDALE      CLEAR     28  25  91 SE8       30.12F
HOWELL         PTCLDY    28  25  89 SE9       30.16S FOG

CITY           SKY/WX    TMP DP  RH WIND       PRES   REMARKS
JACKSON        PTCLDY    27  24  89 SE8       30.14F FOG
LAMBERTVILLE   CLEAR     30  23  74 E3        30.17F
LANSING        PTCLDY    29  24  82 SE12      30.15F
LAPEER         NOT AVBL
MASON          PTCLDY    28  24  86 SE8       30.14F
MONROE         CLEAR     28  25  86 SE6       30.16F
MT. CLEMENS    CLEAR     29  26  89 SE8       30.18F
PONTIAC        PTCLDY    27  23  85 SE8       30.16F
PORT HOPE        N/A     32  24  72 S6        30.18F
PORT HURON     MOCLDY    23  23 100 CALM      30.22F FOG
TRI CITIES     CLOUDY    32  24  72 SE9       30.17F
YPSILANTI      CLEAR     28  22  78 E5        30.18F HAZE
$$
MIZ043>046-050>051-056>058-064>065-071>073-077>080-220600-
SOUTHWEST LOWER MICHIGAN

CITY           SKY/WX    TMP DP  RH WIND       PRES   REMARKS
BATTLE CREEK   PTCLDY    29  24  82 SE7       30.12F
BENTON HARBOR  PTCLDY    30  26  85 SE10      30.07F
BIG RAPIDS     CLOUDY    30  28  94 SE7       30.09F FOG
COLDWATER      CLEAR     28  24  83 MISG      30.12S
HOLLAND        PTCLDY    32  25  75 SE10      30.09F
GRAND RAPIDS   MOCLDY    29  24  82 SE9       30.11F HAZE
KALAMAZOO      PTCLDY    29  24  82 SE7       30.11F HAZE
MARSHALL       CLEAR     27  24  88 SE8       30.12S
MUSKEGON       PTCLDY    32  25  75 SE12      30.09F
$$
MIZ016>042-220600-
NORTHERN LOWER MICHIGAN

CITY           SKY/WX    TMP DP  RH WIND       PRES   REMARKS
ALPENA         CLOUDY    31  25  78 S9        30.16F
BEAVER ISLAND  CLOUDY    33  31  94 SE12      30.06F FOG
BELLAIRE       CLOUDY    33  28  81 S10G17    30.09F
CADILLAC       CLOUDY    29  26  88 SE9       30.06F
CHARLEVOIX     CLOUDY    32  28  85 S9        30.10F
FRANKFORT      CLOUDY    32  28  85 SE12      30.05F
GAYLORD        CLOUDY    29  26  89 S12       30.08F
GRAYLING       CLOUDY    29  26  88 SE9       30.11F
HARBOR SPRINGS CLOUDY    32  27  81 E5        30.08S
HOUGHTON LAKE  CLOUDY    27  23  85 SE5       30.11F
MANISTEE       MOCLDY    32  25  74 SE6       30.07S
OSCODA         CLOUDY    32  26  80 S6        30.18S
PELLSTON       CLOUDY    33  27  78 S9        30.09F
TRAVERSE CITY  CLOUDY    33  27  78 SE8       30.07F
$$
MIZ007>008-015-220600-
EASTERN UPPER MICHIGAN

CITY           SKY/WX    TMP DP  RH WIND       PRES   REMARKS
KINROSS        CLOUDY    30  28  93 S6        30.08S
MACKINAC ISLAN CLOUDY    32  29  87 S12G20    30.08F
NEWBERRY       CLOUDY    32  31  95 S13G21    30.03S FOG
S. S. MARIE    CLOUDY    32  28  85 SE10      30.07F
$$
MIZ004>006-011>014-085-220600-
CENTRAL UPPER MICHIGAN

CITY           SKY/WX    TMP DP  RH WIND       PRES   REMARKS
MANISTIQUE     MIX PCPN  34  33  98 S14G21    30.02S
ESCANABA       CLOUDY    36  30  80 S17G24    29.97S
MENOMINEE      CLOUDY    36  30  80 S13G22    29.96S
SAWYER-GWINN   LGT SNOW  33  32  96 S18       29.91S
$$
MIZ001>003-009>011-084-220600-
WESTERN UPPER MICHIGAN

CITY           SKY/WX    TMP DP  RH WIND       PRES   REMARKS
IRON MOUNTAIN  LGT SNOW  33  31  92 S10       29.89F FOG
HOUGHTON       SNOW      32  31  96 SE8       29.84F VSB 1/2
COPPER HARBOR    N/A     35  32  88 SW13G21   29.86F
IRONWOOD       CLOUDY    36  32  87 SE5       29.77S
$$

ABBREVIATIONS USED IN REMARKS
   TC - TEMPERATURE IN CELSIUS
  WCI - WIND CHILL INDEX
   HX - HEAT INDEX
  VSB - VISIBILITY




USA.gov is the U.S. government's official web portal to all federal, state and local government web resources and services.